TimeEST,TemperatureF,Dew PointF,Humidity,Sea Level PressureIn,VisibilityMPH,Wind Direction,Wind SpeedMPH,Gust SpeedMPH,PrecipitationIn,Events,Conditions,WindDirDegrees,DateUTC
12:54 AM,32.0,19.0,59,30.06,10.0,NW,10.4,-,N/A,,Clear,320,2013-02-25 05:54:00
1:54 AM,30.9,19.0,61,30.07,10.0,WNW,8.1,-,N/A,,Clear,300,2013-02-25 06:54:00
2:54 AM,30.9,19.0,61,30.07,10.0,NW,8.1,-,N/A,,Clear,310,2013-02-25 07:54:00
3:54 AM,30.0,19.0,64,30.08,10.0,WNW,5.8,-,N/A,,Clear,290,2013-02-25 08:54:00
4:54 AM,30.0,19.9,66,30.11,10.0,NW,5.8,-,N/A,,Clear,310,2013-02-25 09:54:00
5:54 AM,30.0,19.9,66,30.12,10.0,NW,6.9,-,N/A,,Clear,320,2013-02-25 10:54:00
6:54 AM,30.2,21.2,69,30.13,10.0,NW,5.8,-,N/A,,Clear,310,2013-02-25 11:54:00
7:54 AM,33.1,21.9,64,30.16,10.0,NW,8.1,-,N/A,,Clear,310,2013-02-25 12:54:00
8:54 AM,37.0,23.0,57,30.16,10.0,NNW,11.5,-,N/A,,Clear,330,2013-02-25 13:54:00
9:54 AM,39.0,25.0,57,30.17,10.0,North,9.2,-,N/A,,Clear,350,2013-02-25 14:54:00
10:54 AM,41.0,25.0,53,30.17,10.0,NNW,11.5,-,N/A,,Scattered Clouds,330,2013-02-25 15:54:00
11:54 AM,42.1,25.0,51,30.19,10.0,NNE,10.4,-,N/A,,Overcast,20,2013-02-25 16:54:00
12:54 PM,42.1,26.1,53,30.19,10.0,North,10.4,-,N/A,,Overcast,350,2013-02-25 17:54:00
1:54 PM,44.1,26.1,49,30.18,10.0,Variable,4.6,-,N/A,,Overcast,0,2013-02-25 18:54:00
2:54 PM,43.0,25.0,49,30.18,10.0,NNW,10.4,-,N/A,,Mostly Cloudy,340,2013-02-25 19:54:00
3:54 PM,43.0,24.1,47,30.18,10.0,NNW,8.1,-,N/A,,Partly Cloudy,330,2013-02-25 20:54:00
4:54 PM,44.1,24.1,45,30.18,10.0,NE,8.1,-,N/A,,Mostly Cloudy,40,2013-02-25 21:54:00
5:54 PM,42.1,24.1,49,30.21,10.0,North,9.2,-,N/A,,Overcast,10,2013-02-25 22:54:00
6:54 PM,37.9,23.0,55,30.23,10.0,Calm,Calm,-,N/A,,Mostly Cloudy,0,2013-02-25 23:54:00
7:54 PM,37.9,25.0,60,30.25,10.0,NNE,5.8,-,N/A,,Overcast,30,2013-02-26 00:54:00
8:54 PM,36.0,24.1,62,30.25,10.0,North,3.5,-,N/A,,Clear,10,2013-02-26 01:54:00
9:54 PM,33.1,24.1,70,30.25,10.0,North,3.5,-,N/A,,Clear,350,2013-02-26 02:54:00
10:54 PM,33.1,24.1,70,30.24,10.0,Calm,Calm,-,N/A,,Clear,0,2013-02-26 03:54:00
11:54 PM,30.0,24.1,79,30.23,10.0,SSE,4.6,-,N/A,,Clear,150,2013-02-26 04:54:00